Location: Newark
(50.4348°N, 30.5552°E)
Time: 03:27:09
(UTC+00:00)

Altair - Pass Details

Date: 27 January 2020
Orbit: 1502 x 1682 km, 47.2° (Epoch: 18 February)

Event Time Altitude Azimuth Distance (km) Brightness Sun altitude
Rises 09:05:28 0° 267° (W) 4,917 10.0 19.5°
Reaches altitude 10° 09:08:37 10° 266° (W) 3,938 9.6 19.7°
Maximum altitude 09:18:45 75° 183° (S) 1,731 8.4 20.1°
Drops below altitude 10° 09:28:48 10° 101° (E) 3,910 10.0 20.4°
Sets 09:31:55 0° 100° (E) 4,880 10.4 20.5°
